TimeCDT,TemperatureF,Dew PointF,Humidity,Sea Level PressureIn,VisibilityMPH,Wind Direction,Wind SpeedMPH,Gust SpeedMPH,PrecipitationIn,Events,Conditions,WindDirDegrees,DateUTC
12:58 AM,66.9,64.9,93,30.06,8.0,Calm,Calm,-,N/A,,Clear,0,2014-05-13 05:58:00
1:58 AM,64.9,63.0,93,30.05,10.0,Calm,Calm,-,N/A,,Partly Cloudy,0,2014-05-13 06:58:00
2:26 AM,64.4,62.6,94,30.06,1.2,Calm,Calm,-,N/A,,Mostly Cloudy,0,2014-05-13 07:26:00
2:37 AM,62.6,62.6,100,30.06,0.8,Calm,Calm,-,N/A,,Mostly Cloudy,0,2014-05-13 07:37:00
2:55 AM,64.4,62.6,94,30.06,1.0,Calm,Calm,-,N/A,,Mostly Cloudy,0,2014-05-13 07:55:00
2:58 AM,66.0,64.0,93,30.05,3.0,Calm,Calm,-,N/A,,Mostly Cloudy,0,2014-05-13 07:58:00
3:06 AM,66.2,64.4,94,30.05,10.0,Calm,Calm,-,N/A,,Overcast,0,2014-05-13 08:06:00
3:58 AM,64.9,63.0,93,30.04,9.0,Calm,Calm,-,N/A,,Mostly Cloudy,0,2014-05-13 08:58:00
4:58 AM,66.9,64.9,93,30.04,10.0,Calm,Calm,-,N/A,,Overcast,0,2014-05-13 09:58:00
5:58 AM,69.1,66.9,93,30.05,4.0,South,5.8,-,N/A,,Overcast,170,2014-05-13 10:58:00
6:25 AM,69.8,68.0,94,30.07,2.5,South,3.5,-,N/A,,Overcast,180,2014-05-13 11:25:00
6:33 AM,69.8,68.0,94,30.07,3.0,South,5.8,-,N/A,,Overcast,190,2014-05-13 11:33:00
6:43 AM,68.0,66.2,94,30.08,2.5,South,5.8,-,N/A,,Overcast,190,2014-05-13 11:43:00
6:58 AM,69.1,68.0,96,30.07,2.0,SSW,5.8,-,N/A,,Overcast,200,2014-05-13 11:58:00
7:58 AM,69.8,68.0,94,30.11,5.0,South,8.1,-,N/A,,Overcast,180,2014-05-13 12:58:00
8:23 AM,69.8,68.0,94,30.11,1.8,South,4.6,-,N/A,,Overcast,190,2014-05-13 13:23:00
8:34 AM,69.8,68.0,94,30.11,2.5,South,4.6,-,N/A,,Overcast,190,2014-05-13 13:34:00
8:44 AM,69.8,68.0,94,30.11,3.0,South,4.6,-,N/A,,Overcast,170,2014-05-13 13:44:00
8:58 AM,70.0,69.1,97,30.10,5.0,South,5.8,-,N/A,,Overcast,190,2014-05-13 13:58:00
9:21 AM,73.4,68.0,83,30.12,10.0,SSE,9.2,-,N/A,,Mostly Cloudy,160,2014-05-13 14:21:00
10:58 AM,78.1,64.9,64,30.11,10.0,South,8.1,-,N/A,,Partly Cloudy,170,2014-05-13 15:58:00
12:58 PM,82.9,64.0,53,30.08,10.0,SSW,10.4,-,N/A,,Partly Cloudy,200,2014-05-13 17:58:00
1:58 PM,82.9,64.0,53,30.06,10.0,South,6.9,-,N/A,,Scattered Clouds,170,2014-05-13 18:58:00
2:58 PM,84.9,64.0,49,30.04,10.0,South,6.9,-,N/A,,Clear,190,2014-05-13 19:58:00
3:58 PM,86.0,63.0,46,30.02,10.0,SW,8.1,-,N/A,,Clear,220,2014-05-13 20:58:00
4:58 PM,84.9,62.1,46,30.00,10.0,SE,5.8,-,N/A,,Clear,130,2014-05-13 21:58:00
5:58 PM,84.0,62.1,47,29.99,10.0,Calm,Calm,-,N/A,,Clear,0,2014-05-13 22:58:00
6:58 PM,82.0,64.0,54,30.00,10.0,East,3.5,-,N/A,,Partly Cloudy,100,2014-05-13 23:58:00
7:58 PM,73.9,70.0,87,30.02,10.0,Calm,Calm,-,0.01,Rain,Light Rain,0,2014-05-14 00:58:00
8:58 PM,70.0,66.0,87,30.06,10.0,WSW,9.2,-,0.00,,Overcast,250,2014-05-14 01:58:00
9:58 PM,69.1,66.0,90,30.06,10.0,NNE,5.8,-,0.03,,Partly Cloudy,20,2014-05-14 02:58:00
10:58 PM,69.1,66.0,90,30.06,10.0,Calm,Calm,-,N/A,,Partly Cloudy,0,2014-05-14 03:58:00
11:53 PM,69.8,66.2,88,30.07,10.0,Calm,Calm,-,0.00,,Mostly Cloudy,0,2014-05-14 04:53:00
11:58 PM,68.0,66.9,96,30.06,9.0,Calm,Calm,-,0.00,,Overcast,0,2014-05-14 04:58:00